Lexington Weather

Lexington, Massachusetts, USA

27°F
2/29/2020 12:55am 
  • Lexington Conditions: Clear
  • Temperature: 27.0°F / -2.8°CColder 0.9°F than last hour.
  • Dew Point: 14.5°FIncreased 1.6°Fsince last hour.
  • Relative Humidity: 59%Increased 6.0% since last hour.
  • Wind: Calm, 10-min avg: Calm, gust: None
  • Barometer: 29.75 in Steady
  • Visibility: 10 miles
  • Snow Today: 0.0 in
  •   

Regional Weather Roundup
for Boston / Norton, MA

        
000
ASUS41 KBOX 261610
RWRBOX

REGIONAL WEATHER ROUNDUP
NATIONAL WEATHER SERVICE BOSTON/NORTON MA
1100 AM EST WED FEB 26 2020

NOTE:  "FAIR" INDICATES FEW OR NO CLOUDS BELOW 12,000 FEET WITH NO 
SIGNIFICANT WEATHER AND/OR OBSTRUCTIONS TO VISIBILITY.

MAZALL-261700-
EASTERN MASSACHUSETTS
  
CITY           SKY/WX    TMP DP  RH WIND       PRES   REMARKS
BOSTON         CLOUDY    47  38  71 E10       30.00S                  
BEVERLY        CLOUDY    46  36  68 NE8       30.00R                  
LAWRENCE       CLOUDY    48  34  58 E12       30.01S                  
BEDFORD        CLOUDY    49  37  63 E8        29.98F                  
BLUE HILL        N/A     43  38  82 E8        29.97S                  
NORWOOD        CLOUDY    49  38  65 NE8       30.00S                  
MARSHFIELD     CLOUDY    45  43  93 N6        29.99F                  
PLYMOUTH       CLOUDY    44  42  93 NE8       29.99S                  
TAUNTON        CLOUDY    47  40  76 NE5       29.98F                  
NEW BEDFORD    CLOUDY    47  43  86 NE6       29.98S                  
$$

MAZALL-261700-
CAPE COD AND THE ISLANDS
  
CITY           SKY/WX    TMP DP  RH WIND       PRES   REMARKS
FALMOUTH       CLOUDY    45  45 100 NE12      29.98S FOG              
HYANNIS        CLOUDY    47  43  86 NE6       29.97S                  
CHATHAM        FOG       43  43 100 NE9       29.99R VSB 3/4          
PROVINCETOWN   CLOUDY    44  44 100 E10       30.00S FOG              
NANTUCKET      CLOUDY    47  44  90 NE10      29.96F                  
MARTHAS VNYRD  CLOUDY    45  43  93 NE10      29.97S                  
$$
 
MAZALL-261700-
CENTRAL AND WESTERN MASSACHUSETTS
  
CITY           SKY/WX    TMP DP  RH WIND       PRES   REMARKS
WORCESTER      CLOUDY    43  35  73 E8        29.97S                  
FITCHBURG      CLOUDY    47  33  58 E7        29.99S                  
ORANGE         CLOUDY    46  37  71 NW5       29.99R                  
SPRINGFIELD    NOT AVBL                                               
WESTFIELD      CLOUDY    42  39  89 N7        29.99S                  
NORTH ADAMS    CLOUDY    41  36  82 E8        29.98R                  
PITTSFIELD     CLOUDY    41  38  89 E3        29.95R                  
$$
 
RIZALL-261700-
RHODE ISLAND
  
CITY           SKY/WX    TMP DP  RH WIND       PRES   REMARKS
PROVIDENCE     CLOUDY    47  41  80 NE8       29.99S                  
NEWPORT        CLOUDY    48  41  76 NE8       29.97F                  
BLOCK ISLAND   CLOUDY    43  42  97 NE12      29.97F                  
WESTERLY       CLOUDY    51  40  65 E12       29.97F                  
$$
 
CTZALL-261700-
CONNECTICUT
  
CITY           SKY/WX    TMP DP  RH WIND       PRES   REMARKS
BRADLEY INTL   CLOUDY    44  41  89 N6        29.99S                  
HARTFORD       CLOUDY    46  42  86 N5        29.99S                  
BRIDGEPORT     CLOUDY    47  42  83 E8        29.99R                  
DANBURY        CLOUDY    45  42  89 E10       29.98R FOG              
GROTON         CLOUDY    48  42  80 E8        29.96F                  
NEW HAVEN      CLOUDY    49  43  80 E7        29.98R                  
CHESTER        CLOUDY    48  41  76 VRB6      29.97R                  
MERIDEN        CLOUDY    47  42  83 N5        29.99R                  
WILLIMANTIC    CLOUDY    47  41  80 NE9       29.99S                  
OXFORD         CLOUDY    45  42  89 SE6       29.98R                  
$$

MEZ002-015-021-024-NHZ003-005-008-011-012-014-VTZ005-008-261700-
NORTHERN NEW ENGLAND
  
CITY           SKY/WX    TMP DP  RH WIND       PRES   REMARKS
PORTLAND ME    CLOUDY    44  33  65 NE8       30.02F                  
BANGOR ME      PTSUNNY   38  24  57 N10       30.07R WCI  31          
CONCORD NH     CLOUDY    45  33  63 SW3       30.00S                  
MANCHESTER NH  PTSUNNY   50  34  54 NE8       29.98F                  
NASHUA NH      CLOUDY    50  33  52 E9        30.00S                  
PORTSMOUTH NH  NOT AVBL                                               
JAFFREY NH     CLOUDY    45  36  70 CALM      29.97R                  
KEENE NH       CLOUDY    42  40  92 CALM      30.00R                  
BURLINGTON VT  FLURRIES  29  23  78 NW10      30.05R WCI  20          
MT. WASHINGTON CLOUDY    23  21  93 SE13        N/A  FOG     WCI  11  
$$

NYZ052-076-261700-
EASTERN NEW YORK
  
CITY           SKY/WX    TMP DP  RH WIND       PRES   REMARKS
ALBANY         LGT RAIN  37  31  78 N3        30.00S FOG              
NEW YORK CITY  DRIZZLE   46  43  89 NE10      29.97R FOG              
$$
 
ANZALL-261700-
MARINE OBSERVATIONS
  
STATION/POSITION TIME  TEMP    WIND        PRES    VSBY  WAVE
                       AIR SEA DIR/SP/G                  HT/PER
                 (UTC) (F)     (DEG/KT/KT) (MB)    (MI)  (FT/S)
BOSTON BUOY      1550   42 42   30/  8/  8 1015.2F         2/ 8
BUZZARDS BAY     1500           30/ 10/ 11 1016.0F
NANTUCKET SOUND  1540                        N/A           1
MASS BAY-STELLWA 1504   41 40   50/ 10/ 12 1013.9R  1 7/8  3/ 8
ISLE OF SHOALS   1600   41      30/ 14/ 17 1015.7R
S OF BLOCK IS    1600      44                N/A           4/ 8
$$

......................KEY.........................
  SKY/WX - SKY CONDITION/PRESENT WEATHER
  TMP    - TEMPERATURE IN FAHRENHEIT
  DWPT   - DEWPOINT IN FAHRENHEIT
  RH     - RELATIVE HUMIDITY IN PERCENT
  WIND   - DIRECTION AND SPEED IN MPH
  PRES   - MEAN SEA LEVEL PRESSURE IN INCHES OF HG
  WCI    - WIND CHILL INDEX
  VSB    - VISIBILITY IN MILES
  HX     - HEAT INDEX
  TC     - TEMPERATURE IN CELSIUS
  VRB    - VARIABLE WIND DIRECTION
  N/A    - NOT AVAILABLE
  
      

Other recent Regional Weather Roundups

Sat Feb 29, 12:10am

Sat Feb 29, 12:00am

Fri Feb 28, 11:10pm

Fri Feb 28, 11:00pm

Fri Feb 28, 10:10pm

Fri Feb 28, 10:00pm

Fri Feb 28, 9:10pm

Fri Feb 28, 9:00pm

Fri Feb 28, 8:10pm

Fri Feb 28, 8:01pm

Fri Feb 28, 7:10pm

Fri Feb 28, 7:00pm

Fri Feb 28, 6:10pm

Fri Feb 28, 6:01pm

Fri Feb 28, 5:10pm

Fri Feb 28, 5:00pm

Fri Feb 28, 4:10pm

Fri Feb 28, 4:01pm

Fri Feb 28, 3:10pm

Fri Feb 28, 3:00pm

Fri Feb 28, 2:10pm

Fri Feb 28, 2:00pm

Fri Feb 28, 1:10pm

Fri Feb 28, 1:01pm

Fri Feb 28, 12:10pm

Fri Feb 28, 12:01pm

Fri Feb 28, 11:10am

Fri Feb 28, 11:00am

Fri Feb 28, 10:10am

Fri Feb 28, 10:00am

Fri Feb 28, 9:10am

Fri Feb 28, 9:01am

Fri Feb 28, 8:10am

Fri Feb 28, 8:00am

Fri Feb 28, 7:10am

Fri Feb 28, 7:00am

Fri Feb 28, 6:10am

Fri Feb 28, 6:00am

Fri Feb 28, 5:10am

Fri Feb 28, 5:00am

Fri Feb 28, 4:10am

Fri Feb 28, 4:00am

Fri Feb 28, 3:10am

Fri Feb 28, 3:00am

Fri Feb 28, 2:10am

Fri Feb 28, 2:00am

Fri Feb 28, 1:10am

Fri Feb 28, 1:00am

Fri Feb 28, 12:10am

Fri Feb 28, 12:00am

Thu Feb 27, 11:10pm

Thu Feb 27, 11:01pm

Thu Feb 27, 10:10pm

Thu Feb 27, 10:00pm

Thu Feb 27, 9:10pm

Thu Feb 27, 9:00pm

Thu Feb 27, 8:10pm

Thu Feb 27, 8:01pm

Thu Feb 27, 7:10pm

Thu Feb 27, 7:00pm

Wed Feb 26, 11:00am

Wed Feb 26, 10:10am

Wed Feb 26, 10:01am

Wed Feb 26, 9:10am

Wed Feb 26, 9:00am

Wed Feb 26, 8:10am

Wed Feb 26, 8:00am

Wed Feb 26, 7:10am

Wed Feb 26, 7:00am

Wed Feb 26, 6:10am

Wed Feb 26, 6:00am

Wed Feb 26, 5:10am

Wed Feb 26, 5:00am

Wed Feb 26, 4:10am

Wed Feb 26, 4:00am

Wed Feb 26, 3:10am

Wed Feb 26, 3:00am

Wed Feb 26, 2:10am

Wed Feb 26, 2:00am

Wed Feb 26, 1:10am

Wed Feb 26, 1:00am

Meta data:

ID: e9a234ce-b7fc-4ec0-93b8-f7fb7c070569
Link: https://api.weather.gov/products/e9a234ce-b7fc-4ec0-93b8-f7fb7c070569